Weather History for KMMH - December, 2012

Change the Weather History Date:

Wednesday, December 12, 2012

  Actual Average Record
Temperature  
Mean Temperature 32 °F -  
Max Temperature 39 °F 40 °F 57 °F (2010)
Min Temperature 24 °F 24 °F -7 °F (1997)
Degree Days  
Heating Degree Days 32    
Moisture  
Dew Point 19 °F    
Average Humidity 60    
Maximum Humidity 100    
Minimum Humidity 28    
Precipitation  
Precipitation 0.03 in - - ()
Sea Level Pressure  
Sea Level Pressure 29.74 in    
Wind  
Wind Speed 9 mph (WSW)    
Max Wind Speed 21 mph    
Max Gust Speed 28 mph    
Visibility 8 miles    
Events Snow    
Averages and records for this station are not official NWS values.
T = Trace of Precipitation, MM = Missing Value Source: NWS Daily Summary

Daily Weather History Graph

Daily Weather History Graph

Search for Another Location

Airport or City:

Trip Planner

Search our weather history database for the weather conditions in past years. The results will help you decide how hot, cold, wet, or windy it might be!

Date:

Astronomy

Dec. 12, 2012 Rise Set
Actual Time 7:01 AM PST 4:37 PM PST
Civil Twilight 6:32 AM PST 5:06 PM PST
Nautical Twilight 5:59 AM PST 5:39 PM PST
Astronomical Twilight 5:27 AM PST 6:11 PM PST
Moon 6:11 AM PST (12/12) 4:19 PM PST (12/12)
Length of Visible Light 10h 34m
Length of Day
9h 35m
Waning Crescent, 0% of the Moon is Illuminated
Dec 12
Waning Crescent
Dec 13
New
Dec 19
First Quarter
Dec 28
Full
Jan 4
Last Quarter

Hourly Weather History & Observations

Time (PST) Temp. Windchill Dew Point Humidity Pressure Visibility Wind Dir Wind Speed Gust Speed Precip Events Conditions
12:15 AM 39.2 °F 32.5 °F 10.4 °F 31% 29.82 in 10.0 mi SW 10.4 mph 18.4 mph N/A   Clear
12:35 AM 39.2 °F 37.0 °F 10.4 °F 31% 29.81 in 10.0 mi WSW 3.5 mph 17.3 mph N/A   Clear
12:55 AM 37.4 °F 26.9 °F 12.2 °F 36% 29.81 in 10.0 mi West 20.7 mph 27.6 mph N/A   Clear
1:15 AM 37.4 °F 30.8 °F 12.2 °F 36% 29.79 in 10.0 mi SW 9.2 mph 16.1 mph N/A   Clear
1:35 AM 37.4 °F 28.5 °F 12.2 °F 36% 29.80 in 10.0 mi SW 15.0 mph 24.2 mph N/A   Scattered Clouds
1:55 AM 37.4 °F 28.2 °F 10.4 °F 33% 29.79 in 10.0 mi SW 16.1 mph 19.6 mph N/A   Mostly Cloudy
2:15 AM 37.4 °F 30.8 °F 12.2 °F 36% 29.80 in 10.0 mi SSW 9.2 mph 21.9 mph N/A   Overcast
2:35 AM 37.4 °F 28.5 °F 12.2 °F 36% 29.79 in 10.0 mi SSW 15.0 mph 24.2 mph N/A   Scattered Clouds
2:55 AM 35.6 °F 26.2 °F 10.4 °F 35% 29.79 in 10.0 mi SW 15.0 mph 27.6 mph N/A   Clear
3:15 AM 35.6 °F 25.9 °F 10.4 °F 35% 29.77 in 10.0 mi SW 16.1 mph 26.5 mph N/A   Clear
3:55 AM 37.4 °F 30.3 °F 6.8 °F 28% 29.77 in 10.0 mi SW 10.4 mph 17.3 mph N/A   Clear
4:15 AM 37.4 °F 29.8 °F 8.6 °F 30% 29.77 in 10.0 mi WSW 11.5 mph 23.0 mph N/A   Scattered Clouds
4:35 AM 35.6 °F 29.2 °F 10.4 °F 35% 29.76 in 10.0 mi WSW 8.1 mph 19.6 mph N/A   Scattered Clouds
4:55 AM 35.6 °F - 10.4 °F 35% 29.77 in 10.0 mi North - - N/A   Scattered Clouds
5:15 AM 35.6 °F 27.5 °F 10.4 °F 35% 29.77 in 10.0 mi West 11.5 mph 23.0 mph N/A   Scattered Clouds
5:35 AM 35.6 °F 28.6 °F 12.2 °F 38% 29.77 in 10.0 mi SW 9.2 mph 24.2 mph N/A   Mostly Cloudy
5:55 AM 35.6 °F 27.5 °F 15.8 °F 44% 29.77 in 10.0 mi SW 11.5 mph 19.6 mph N/A   Mostly Cloudy
6:15 AM 35.6 °F - 15.8 °F 44% 29.77 in 10.0 mi North - - N/A   Overcast
6:35 AM 35.6 °F 29.2 °F 15.8 °F 44% 29.77 in 10.0 mi SSW 8.1 mph 18.4 mph N/A   Overcast
6:55 AM 35.6 °F - 15.8 °F 44% 29.77 in 10.0 mi North - - N/A   Overcast
7:15 AM 35.6 °F 30.7 °F 15.8 °F 44% 29.77 in 10.0 mi SW 5.8 mph - N/A   Overcast
7:35 AM 35.6 °F 31.7 °F 17.6 °F 48% 29.77 in 10.0 mi WSW 4.6 mph - N/A   Overcast
7:55 AM 35.6 °F 29.9 °F 15.8 °F 44% 29.78 in 10.0 mi WSW 6.9 mph - N/A   Overcast
8:15 AM 35.6 °F 29.2 °F 14.0 °F 41% 29.77 in 10.0 mi SSW 8.1 mph 16.1 mph N/A   Overcast
8:35 AM 35.6 °F - 12.2 °F 38% 29.78 in 10.0 mi North - - N/A   Overcast
8:55 AM 35.6 °F 27.1 °F 14.0 °F 41% 29.78 in 10.0 mi SW 12.7 mph 19.6 mph N/A   Overcast
9:15 AM 37.4 °F 32.1 °F 14.0 °F 38% 29.78 in 10.0 mi WSW 6.9 mph 19.6 mph N/A   Overcast
9:35 AM 37.4 °F 30.8 °F 12.2 °F 36% 29.79 in 10.0 mi West 9.2 mph - N/A   Overcast
9:55 AM 37.4 °F - 14.0 °F 38% 29.78 in 10.0 mi Calm Calm - N/A   Overcast
10:15 AM 37.4 °F 33.8 °F 14.0 °F 38% 29.78 in 10.0 mi SE 4.6 mph - N/A   Overcast
10:35 AM 37.4 °F - 15.8 °F 41% 29.77 in 10.0 mi Calm Calm - N/A   Overcast
10:55 AM 37.4 °F 33.8 °F 14.0 °F 38% 29.77 in 10.0 mi East 4.6 mph - N/A   Overcast
11:15 AM 37.4 °F 32.1 °F 12.2 °F 36% 29.76 in 10.0 mi SE 6.9 mph 16.1 mph N/A   Overcast
11:55 AM 37.4 °F - 12.2 °F 36% 29.74 in 10.0 mi North - - N/A   Overcast
12:15 PM 37.4 °F 30.8 °F 14.0 °F 38% 29.75 in 10.0 mi West 9.2 mph - N/A   Overcast
12:35 PM 37.4 °F 34.9 °F 15.8 °F 41% 29.73 in 10.0 mi SE 3.5 mph - N/A   Overcast
12:55 PM 37.4 °F 32.1 °F 17.6 °F 45% 29.71 in 10.0 mi ESE 6.9 mph - N/A   Overcast
1:15 PM 37.4 °F 32.1 °F 15.8 °F 41% 29.71 in 10.0 mi SSE 6.9 mph - N/A   Overcast
1:35 PM 37.4 °F 33.8 °F 17.6 °F 45% 29.70 in 10.0 mi WSW 4.6 mph - N/A   Overcast
1:55 PM 37.4 °F - 17.6 °F 45% 29.69 in 10.0 mi North - - N/A   Overcast
2:15 PM 37.4 °F 30.8 °F 19.4 °F 48% 29.70 in 10.0 mi NW 9.2 mph - N/A   Overcast
2:35 PM 33.8 °F 26.4 °F 26.6 °F 75% 29.70 in 10.0 mi West 9.2 mph - N/A Snow Light Snow
2:55 PM 32.0 °F 24.8 °F 28.4 °F 87% 29.69 in 2.0 mi West 8.1 mph - N/A Snow Light Snow
3:15 PM 32.0 °F 28.7 °F 28.4 °F 87% 29.70 in 10.0 mi WNW 3.5 mph - N/A   Overcast
3:35 PM 32.0 °F 25.6 °F 28.4 °F 87% 29.70 in 10.0 mi West 6.9 mph - N/A   Overcast
3:55 PM 32.0 °F 24.2 °F 26.6 °F 80% 29.70 in 7.0 mi West 9.2 mph - N/A Snow Light Snow
4:15 PM 30.2 °F 23.4 °F 28.4 °F 93% 29.70 in 10.0 mi West 6.9 mph - N/A Snow Light Snow
4:35 PM 30.2 °F 23.4 °F 28.4 °F 93% 29.70 in 7.0 mi West 6.9 mph - N/A Snow Light Snow
4:55 PM 30.2 °F 23.4 °F 28.4 °F 93% 29.69 in 10.0 mi West 6.9 mph - N/A   Overcast
5:15 PM 30.2 °F - 28.4 °F 93% 29.70 in 10.0 mi North - - N/A Snow Light Snow
5:35 PM 30.2 °F 24.3 °F 28.4 °F 93% 29.70 in 10.0 mi West 5.8 mph - N/A   Overcast
5:55 PM 30.2 °F 24.3 °F 26.6 °F 86% 29.69 in 5.0 mi West 5.8 mph - N/A Snow Light Snow
6:15 PM 30.2 °F 21.3 °F 28.4 °F 93% 29.71 in 3.0 mi West 10.4 mph - N/A Snow Light Snow
6:35 PM 28.4 °F 24.6 °F 28.4 °F 100% 29.70 in 3.0 mi NNW 3.5 mph - N/A Snow Light Snow
6:55 PM 28.4 °F 23.3 °F 28.4 °F 100% 29.69 in 10.0 mi West 4.6 mph - N/A   Overcast
7:15 PM 28.4 °F 21.2 °F 26.6 °F 93% 29.68 in 10.0 mi West 6.9 mph - N/A   Overcast
7:35 PM 28.4 °F 23.3 °F 26.6 °F 93% 29.70 in 10.0 mi WNW 4.6 mph - N/A   Overcast
7:55 PM 28.4 °F 18.5 °F 28.4 °F 100% 29.70 in 1.2 mi WNW 11.5 mph - N/A Snow Snow
8:15 PM 28.4 °F 19.1 °F 26.6 °F 93% 29.71 in 0.8 mi WNW 10.4 mph - N/A Snow Snow
8:35 PM 26.6 °F 18.2 °F 26.6 °F 100% 29.70 in 1.0 mi WNW 8.1 mph - 0.01 in Snow Snow
8:55 PM 26.6 °F 16.2 °F 24.8 °F 93% 29.71 in 0.8 mi WNW 11.5 mph - 0.01 in Snow Snow
9:15 PM 26.6 °F 16.8 °F 24.8 °F 93% 29.71 in 0.8 mi WNW 10.4 mph - 0.01 in Snow Snow
9:35 PM 26.6 °F 19.1 °F 24.8 °F 93% 29.72 in 0.8 mi NW 6.9 mph - 0.02 in Snow Snow
9:55 PM 26.6 °F 20.0 °F 24.8 °F 93% 29.71 in 3.0 mi NW 5.8 mph - 0.02 in Snow Light Snow
10:15 PM 26.6 °F 17.5 °F 24.8 °F 93% 29.73 in 3.0 mi WNW 9.2 mph - N/A Snow Light Snow
10:35 PM 26.6 °F 19.1 °F 24.8 °F 93% 29.73 in 5.0 mi WNW 6.9 mph - N/A Snow Light Snow
10:55 PM 26.6 °F 19.1 °F 23.0 °F 86% 29.73 in 10.0 mi WNW 6.9 mph - N/A   Overcast
11:15 PM 26.6 °F 17.5 °F 23.0 °F 86% 29.72 in 10.0 mi WNW 9.2 mph - N/A   Overcast
11:35 PM 26.6 °F 19.1 °F 23.0 °F 86% 29.73 in 10.0 mi West 6.9 mph - N/A   Overcast
11:55 PM 24.8 °F 14.0 °F 23.0 °F 93% 29.71 in 10.0 mi West 11.5 mph - N/A   Overcast